Wetbulb
49.34 45.49 42.80 45.86 47.24 46.93 46.07 43.90 42.95 45.24 46.80 45.83 46.11 46.78 48.93 52.56 53.20 54.14 55.92 56.84 58.56 59.26 61.12 61.33 60.86 60.07 59.79 59.62 59.70 59.97 58.18 58.90 59.44 59.58 58.79 57.95 59.07 59.71 60.68 60.79 60.36 60.42 60.20 60.70
45.73 42.41 46.40 48.31 47.81 45.98 45.19 42.72 42.67 45.63 46.69 45.76 45.50 45.34 48.12 51.51 52.49 53.81 54.47 56.40 57.41 59.45 59.93 60.13 60.08 59.99 59.39 58.85 58.98 59.09 58.52 58.37 59.44 59.01 59.31 59.55 58.98 60.59 61.08 60.29 59.86 59.47 61.04 60.70
42.00 44.42 46.40 46.34 45.29 43.63 44.27 42.70 42.92 42.88 45.26 46.43 45.06 43.42 45.77 50.11 52.56 53.73 55.37 56.66 57.84 59.05 59.42 59.45 59.23 59.52 59.66 57.75 58.80 58.92 58.56 59.29 59.93 60.68 61.07 59.45 58.18 58.37 58.17 58.91 58.91 58.74 59.50 60.79
43.72 45.94 43.71 44.04 43.61 45.06 41.55 46.13 44.38 43.63 42.45 38.85 44.97 37.58 45.40 48.59 49.67 51.42 52.66 55.97 57.26 58.53 60.19 60.13 59.76 59.51 59.53 59.20 58.33 59.70 58.44 59.66 59.28 59.56 58.32 59.38 58.65 55.80 58.55 57.82 58.32 58.69 58.72 59.20
42.18 42.56 41.46 40.25 43.36 44.91 42.76 46.83 44.66 44.49 43.03 42.29 41.85 39.03 43.48 47.38 47.17 49.72 51.88 53.47 56.79 58.85 60.06 60.10 60.02 60.13 60.29 60.18 58.85 58.48 58.79 60.33 58.84 58.23 58.94 58.26 58.74 56.43 57.61 58.34 57.47 57.61 58.23 59.42
43.12 47.39 45.79 43.47 46.26 46.82 46.60 44.66 44.25 44.15 42.74 35.45 40.15 40.11 41.44 45.79 48.15 49.63 51.67 52.88 54.20 57.98 59.64 60.72 61.35 61.13 60.38 60.36 59.55 59.37 59.74 59.72 59.22 59.32 58.39 57.57 57.22 57.14 56.43 55.97 57.34 56.65 57.41 57.83
39.15 40.53 45.34 46.62 42.73 45.71 45.28 42.41 36.85 35.52 35.43 34.26 42.22 40.12 42.32 48.30 50.27 51.15 51.80 53.03 54.35 57.41 58.91 59.85 60.17 60.01 59.89 59.32 59.02 59.23 59.76 59.27 59.91 59.76 59.35 58.77 59.30 59.19 57.67 56.44 56.66 55.90 56.00 56.68
32.27 32.05 40.97 45.78 44.48 42.32 42.61 42.72 38.62 31.53 34.14 37.59 42.25 38.01 43.19 49.75 51.61 53.00 53.16 53.78 54.56 55.48 58.43 59.62 60.32 60.47 60.32 59.72 59.08 58.47 59.26 59.27 60.02 59.67 60.00 60.35 60.16 59.91 59.26 59.40 59.23 59.59 59.15 58.86
34.73 35.17 43.85 44.30 46.14 45.30 42.77 40.44 45.32 39.60 40.11 37.19 41.35 43.79 47.76 49.92 50.47 52.05 52.88 54.06 54.24 55.32 57.24 59.12 60.26 60.74 60.74 60.20 59.51 58.61 59.04 59.28 59.71 59.97 60.27 60.23 60.32 60.74 61.17 60.75 60.62 60.75 60.68 60.49
40.65 34.18 41.47 44.24 45.69 46.35 45.33 47.02 38.55 40.16 31.94 31.29 38.02 40.08 42.14 45.62 47.16 50.43 51.20 52.37 53.78 55.58 55.76 58.55 60.16 60.52 60.96 60.95 60.68 59.79 60.04 58.85 59.46 59.98 60.26 59.98 59.80 59.97 60.52 61.23 61.29 61.74 61.59 61.43
42.38 39.49 38.74 42.93 41.42 41.31 42.41 41.92 43.07 43.04 40.37 34.57 33.51 38.81 48.17 47.43 48.52 50.06 51.70 53.48 54.46 56.00 55.40 57.74 59.40 60.75 60.93 61.39 60.75 60.12 59.93 58.85 58.74 59.41 60.18 60.05 59.78 59.64 60.58 61.21 61.20 61.31 61.64 61.27
44.32 40.81 36.60 38.82 44.34 45.35 45.48 42.69 43.40 37.72 37.15 39.95 39.42 39.69 49.15 50.10 50.55 50.50 51.89 53.60 55.07 55.94 55.97 57.03 59.50 60.21 60.26 60.62 60.57 60.23 60.24 59.51 59.23 59.58 60.11 60.28 60.02 59.79 59.63 60.12 61.17 62.10 61.54 61.89
43.30 39.40 33.33 35.35 40.04 43.85 42.04 43.09 43.21 43.21 42.53 38.25 35.98 39.25 49.50 49.74 49.58 50.51 51.28 53.76 54.94 55.23 56.12 56.35 58.37 59.24 59.99 60.46 60.35 60.51 60.32 60.20 60.17 59.88 59.54 59.79 59.57 59.67 59.92 59.71 59.72 60.26 60.26 60.50
44.22 40.05 37.20 33.81 36.85 41.06 38.21 40.24 42.50 41.67 37.86 38.42 39.42 41.34 45.43 47.28 47.76 49.18 50.24 52.07 53.83 54.67 55.37 55.69 56.27 58.23 59.77 60.71 60.75 60.43 60.47 60.79 60.72 60.12 59.44 58.88 59.29 59.90 59.60 59.65 59.07 59.74 59.59 58.97
44.29 36.63 38.64 38.82 39.18 39.35 38.92 39.03 39.95 38.90 40.21 37.25 40.68 41.47 45.24 47.77 48.73 50.04 51.21 51.28 51.66 52.92 54.30 55.24 55.83 56.86 59.08 60.30 60.78 61.11 60.92 60.60 60.77 59.84 59.35 59.98 59.93 59.83 59.51 59.19 59.12 59.55 59.67 59.42
41.65 36.09 38.74 35.57 38.51 39.17 37.35 39.48 40.28 40.31 40.58 41.89 42.99 42.07 48.41 49.61 49.74 49.18 50.08 50.89 50.57 51.52 53.45 55.10 55.80 55.80 56.25 58.41 60.21 60.49 60.62 60.67 60.70 59.67 59.15 59.95 60.02 59.88 59.33 59.05 59.00 59.53 59.21 59.21
36.35 37.55 35.36 31.35 36.91 37.05 32.60 37.87 39.79 41.06 42.49 43.36 39.74 43.48 47.03 46.88 47.64 49.42 50.49 51.23 50.93 52.06 53.12 54.25 55.18 56.02 56.58 56.91 58.78 59.96 60.98 61.52 60.08 59.60 59.81 59.46 59.62 59.46 59.56 59.23 58.86 58.63 58.79 59.53
36.01 37.16 36.89 32.82 34.16 25.45 37.82 42.29 42.02 40.84 42.64 44.53 43.77 45.53 47.05 48.16 50.10 51.53 51.53 50.54 51.09 51.96 52.61 53.60 54.83 55.38 56.44 57.83 57.88 59.47 60.56 60.84 60.02 59.61 59.66 59.59 59.14 58.98 59.35 59.13 58.61 58.84 59.23 58.91
39.95 37.01 33.47 30.00 30.52 34.49 36.78 40.19 39.86 38.77 38.75 44.26 43.85 46.06 47.52 49.04 50.07 50.40 52.56 52.06 51.62 52.38 53.27 54.01 54.80 54.52 55.05 55.53 56.64 57.82 58.90 59.85 60.11 59.39 59.35 59.62 59.79 58.92 58.99 58.81 59.28 58.90 58.03 57.58
39.47 39.20 34.85 32.88 27.20 25.57 36.56 42.66 45.93 45.47 35.73 44.93 45.26 45.06 45.53 47.59 43.20 47.30 51.71 52.31 52.37 53.50 53.62 54.99 55.95 56.03 55.56 55.67 55.83 56.04 56.99 58.40 58.88 59.57 59.86 60.23 60.15 59.59 59.25 59.46 57.94 52.53 54.11 50.39
31.27 32.79 31.24 31.55 30.84 34.77 41.81 43.71 46.97 34.34 37.07 45.51 46.17 46.15 46.03 44.91 48.01 50.64 51.89 51.95 53.00 53.53 53.63 55.46 56.40 56.27 56.33 57.04 56.63 55.53 56.80 56.68 58.59 59.99 60.27 60.20 60.22 59.87 58.83 52.41 51.47 48.53 43.59 41.06
31.38 29.47 29.67 32.69 28.79 26.73 44.29 43.97 38.89 43.50 45.94 46.23 47.05 47.52 47.24 48.75 49.74 50.76 50.55 51.63 52.63 52.50 53.51 54.58 54.43 51.84 52.18 54.86 57.20 57.17 57.04 55.93 56.00 56.23 54.83 54.12 53.20 49.74 49.75 47.20 44.76 43.19 39.83 36.17
32.78 37.72 35.95 36.49 36.29 44.12 46.15 45.36 46.93 47.58 45.98 46.83 47.47 48.41 48.98 49.24 49.55 50.51 50.39 51.19 51.10 51.25 51.65 53.26 50.15 46.82 45.68 47.68 52.57 52.64 50.53 51.40 51.31 49.89 48.30 46.29 44.97 44.51 44.70 42.46 40.39 37.75 37.12 34.48
39.15 41.97 38.03 38.21 40.98 42.75 44.01 45.84 46.87 46.89 46.43 46.95 46.81 46.52 47.02 46.63 49.55 49.28 49.36 48.51 48.70 47.73 46.64 46.49 46.58 43.00 39.86 40.23 42.63 45.70 46.47 46.24 45.58 43.40 41.76 41.43 39.81 38.81 39.34 38.65 37.53 35.72 34.35 32.54
39.67 40.58 38.27 38.48 41.59 43.04 43.78 45.32 45.63 45.52 46.61 45.00 44.54 43.71 42.58 42.35 44.35 44.26 45.79 42.35 41.61 40.76 40.36 40.87 39.29 38.41 36.97 36.89 36.39 38.07 40.90 42.45 39.75 38.19 37.15 35.77 34.59 32.91 31.22 31.41 34.13 33.87 33.99 33.64
41.02 38.68 36.95 36.01 42.05 41.27 41.72 44.92 44.89 43.61 43.92 43.21 41.03 40.39 40.53 39.14 39.74 40.72 38.68 36.83 37.97 35.83 34.50 34.41 33.28 33.73 34.36 34.00 32.93 33.60 35.19 37.71 36.76 35.02 34.10 33.34 32.55 31.74 30.68 29.27 28.41 30.51 30.70 31.13
MSLP
1007.99 1007.02 1006.12 1005.55 1005.58 1005.29 1004.55 1004.30 1004.01 1003.61 1004.23 1004.57 1003.65 1003.12 1002.60 1001.92 1002.77 1003.07 1003.57 1004.03 1004.79 1005.64 1006.73 1007.99 1009.10 1010.00 1010.60 1011.20 1011.72 1012.11 1012.87 1013.33 1013.74 1014.05 1014.66 1015.38 1015.74 1016.42 1016.86 1017.42 1018.01 1018.31 1018.61 1018.80
1007.23 1005.63 1005.44 1005.93 1005.91 1005.63 1005.05 1004.52 1004.09 1003.97 1004.46 1004.68 1003.32 1002.53 1002.17 1001.72 1001.63 1001.86 1002.01 1002.94 1003.68 1004.66 1005.96 1007.33 1008.48 1009.29 1010.01 1010.85 1011.40 1011.96 1012.52 1013.12 1013.59 1014.03 1014.48 1015.06 1015.53 1015.85 1016.48 1017.12 1017.54 1018.23 1018.56 1018.79
1005.74 1004.94 1005.62 1005.54 1005.86 1005.49 1004.73 1004.31 1004.23 1004.08 1004.15 1004.29 1003.57 1002.18 1001.40 1001.02 1000.86 1001.30 1001.58 1001.92 1002.65 1003.52 1004.88 1006.42 1007.57 1008.55 1009.30 1010.40 1010.94 1011.26 1012.01 1012.75 1013.18 1013.64 1013.99 1014.87 1015.45 1016.02 1016.48 1016.95 1017.82 1018.23 1018.73 1018.55
1005.71 1005.22 1005.26 1005.39 1005.00 1005.00 1004.05 1004.18 1004.78 1004.59 1004.62 1003.31 1003.59 1001.29 1000.05 1000.32 1000.10 999.92 1000.41 1001.08 1001.78 1002.63 1003.94 1005.35 1006.49 1007.60 1008.39 1009.30 1010.50 1010.89 1011.53 1012.04 1012.82 1013.28 1013.74 1014.19 1014.74 1015.40 1015.78 1016.63 1017.37 1018.11 1018.46 1018.72
1005.16 1005.05 1004.78 1004.67 1004.41 1004.53 1003.92 1003.96 1004.58 1004.58 1004.18 1003.74 1003.21 1002.21 999.92 999.87 999.67 999.19 999.16 999.65 1000.66 1001.69 1002.79 1004.07 1005.32 1006.48 1007.62 1008.55 1009.66 1010.48 1010.92 1011.10 1012.18 1012.89 1013.09 1013.72 1014.23 1014.97 1015.61 1016.29 1016.87 1017.47 1018.17 1018.68
1005.79 1005.46 1005.05 1004.55 1004.35 1004.32 1004.46 1004.61 1004.53 1004.50 1004.09 1003.12 1002.58 1001.85 999.54 998.70 998.67 998.53 998.58 998.83 999.38 1000.78 1001.91 1003.18 1004.61 1005.95 1006.93 1008.03 1009.00 1009.83 1010.02 1010.44 1011.18 1011.97 1012.79 1013.48 1013.72 1014.30 1014.95 1015.98 1016.48 1017.35 1017.89 1018.39
1006.41 1005.63 1005.17 1004.72 1004.11 1004.27 1004.28 1004.06 1003.53 1003.71 1003.21 1001.95 1001.43 1001.27 999.45 998.94 998.70 998.47 998.38 998.50 999.04 1000.09 1001.03 1002.06 1003.38 1004.69 1005.90 1006.90 1008.08 1008.86 1009.16 1009.53 1010.26 1010.92 1011.69 1012.49 1012.91 1013.46 1014.11 1014.69 1015.53 1016.43 1016.93 1017.29
1005.65 1005.42 1005.02 1004.17 1003.49 1003.30 1003.23 1002.95 1001.97 1001.96 1001.72 1001.12 1001.41 1000.00 998.99 998.77 998.50 998.61 998.44 998.46 998.81 999.55 1000.37 1001.05 1002.17 1003.51 1004.68 1005.96 1006.92 1007.91 1008.30 1008.68 1009.33 1009.97 1010.50 1011.26 1011.96 1012.54 1012.93 1013.55 1014.07 1014.66 1015.13 1015.86
1004.60 1003.83 1003.70 1003.69 1003.47 1003.26 1002.95 1002.47 1002.74 1002.60 1002.71 1001.94 1000.29 999.82 999.31 998.72 998.50 998.20 998.05 998.20 998.31 998.55 999.27 1000.16 1001.19 1002.52 1003.68 1004.70 1005.74 1006.76 1007.21 1007.85 1008.47 1009.07 1009.71 1010.18 1010.75 1011.33 1011.65 1012.37 1013.05 1013.57 1014.24 1014.79
1004.53 1003.83 1003.29 1002.89 1003.55 1003.03 1002.45 1002.33 1002.81 1002.77 1002.02 1001.10 999.99 999.44 998.50 998.36 998.28 997.79 997.72 997.71 997.78 998.20 998.74 999.46 1000.31 1001.57 1002.61 1003.85 1005.08 1006.19 1006.48 1006.92 1007.71 1008.39 1008.73 1009.25 1009.72 1010.14 1010.69 1011.34 1011.74 1012.27 1013.03 1013.58
1004.89 1004.44 1003.77 1003.16 1002.70 1002.11 1002.33 1002.30 1002.03 1001.91 1001.97 1000.82 1000.00 998.93 998.45 998.49 998.26 998.00 997.89 997.87 997.82 998.07 998.45 999.11 999.68 1000.64 1001.87 1002.68 1003.89 1005.01 1005.62 1006.07 1006.64 1007.32 1007.79 1008.21 1008.73 1009.33 1009.74 1009.94 1010.62 1011.36 1012.14 1012.58
1005.66 1004.71 1003.75 1003.05 1002.67 1002.45 1001.98 1002.19 1002.24 1001.94 1001.60 1001.42 1000.55 999.41 999.10 998.90 998.84 998.91 998.48 997.90 997.92 997.91 997.97 998.60 999.26 1000.02 1000.99 1001.75 1002.48 1003.30 1004.43 1005.03 1005.71 1006.44 1006.83 1007.32 1008.01 1008.55 1008.97 1009.18 1009.37 1010.07 1010.68 1011.66
1006.55 1005.42 1004.26 1003.66 1003.41 1003.14 1002.52 1002.90 1002.91 1002.64 1002.53 1001.55 1000.95 1000.02 999.55 999.44 999.24 998.94 998.63 998.07 997.70 997.55 997.58 998.18 999.00 999.37 1000.06 1000.77 1001.53 1002.13 1003.07 1003.79 1004.63 1005.45 1006.12 1006.53 1007.04 1007.35 1007.52 1008.15 1008.85 1009.32 1009.82 1010.27
1007.44 1006.02 1005.41 1004.18 1003.89 1003.94 1003.94 1003.74 1003.57 1003.26 1002.55 1001.81 1000.94 1000.22 999.85 999.67 999.18 998.86 998.57 998.26 997.80 997.55 997.55 997.76 998.11 998.77 999.26 999.82 1000.43 1001.04 1001.75 1002.60 1003.44 1004.25 1004.99 1005.44 1005.69 1006.03 1006.64 1007.28 1008.08 1008.56 1008.87 1009.31
1007.59 1006.36 1006.02 1005.71 1005.31 1004.93 1004.51 1004.05 1003.64 1003.28 1002.93 1002.34 1001.50 1000.79 1000.26 999.89 999.66 999.46 999.23 999.05 998.58 997.99 997.51 997.39 997.52 997.74 998.25 998.95 999.56 1000.08 1000.64 1001.46 1002.16 1002.84 1003.45 1003.64 1004.55 1005.19 1005.94 1006.56 1007.14 1007.70 1008.26 1008.59
1008.28 1007.13 1006.90 1006.16 1005.86 1005.29 1004.56 1004.03 1003.59 1003.08 1002.57 1001.98 1001.48 1000.83 1000.21 1000.19 1000.17 999.86 999.45 999.12 998.74 998.10 997.59 997.12 997.13 997.24 997.43 997.76 998.38 999.09 999.60 1000.15 1001.03 1001.60 1001.80 1002.55 1003.29 1004.07 1004.52 1005.28 1005.98 1006.67 1007.19 1007.63
1008.97 1008.01 1007.44 1006.59 1006.26 1005.54 1004.47 1003.29 1002.76 1002.31 1001.98 1001.58 1001.15 1000.85 1001.20 1000.91 1000.66 1000.29 1000.00 999.74 999.09 998.53 997.90 997.42 997.07 996.90 996.95 997.00 997.20 997.73 998.22 999.32 999.93 1000.34 1000.92 1001.47 1002.18 1002.68 1003.37 1004.17 1004.79 1005.27 1005.85 1006.54
1009.26 1008.50 1008.18 1007.21 1006.83 1005.16 1003.12 1002.90 1002.62 1002.24 1001.87 1001.58 1001.48 1001.62 1001.81 1001.66 1001.35 1000.76 1000.68 1000.62 1000.18 999.72 998.89 997.97 997.30 996.80 996.76 996.63 996.61 996.68 997.09 997.90 998.82 999.35 999.81 1000.33 1000.86 1001.62 1002.43 1003.25 1003.78 1004.37 1005.01 1005.73
1009.40 1009.03 1008.60 1007.74 1006.31 1004.61 1003.46 1002.59 1002.26 1001.92 1001.95 1002.44 1002.12 1002.02 1002.02 1001.87 1001.38 1000.06 1000.56 1001.01 1000.79 1000.08 999.35 998.57 997.73 997.19 996.75 996.45 996.19 996.41 996.60 996.83 997.49 997.93 998.42 999.13 999.91 1000.54 1001.41 1002.23 1003.05 1003.83 1004.56 1005.26
1008.97 1009.14 1008.73 1007.78 1006.31 1004.43 1003.06 1002.86 1002.81 1002.32 1002.21 1002.85 1002.93 1002.74 1002.70 1002.22 1001.24 1000.65 1000.97 1000.99 1000.68 1000.03 999.64 998.81 998.14 997.50 996.96 996.49 996.30 996.20 996.07 996.14 996.41 996.83 997.36 998.35 999.18 999.98 1000.58 1001.36 1002.43 1003.67 1004.57 1005.62
1008.49 1008.64 1007.94 1007.31 1005.95 1004.17 1003.35 1002.85 1003.13 1002.93 1003.71 1003.41 1003.46 1003.29 1003.06 1002.67 1002.17 1001.83 1001.64 1001.05 1000.80 1000.30 999.77 999.48 998.73 997.99 997.77 997.44 996.78 996.57 996.13 995.98 996.14 996.63 997.50 998.15 998.82 999.53 1000.40 1001.96 1003.06 1004.04 1005.25 1006.26
1007.16 1007.27 1007.12 1006.78 1005.68 1004.69 1003.64 1003.61 1003.64 1004.25 1004.20 1004.23 1003.91 1003.68 1003.33 1002.87 1002.44 1002.04 1002.10 1001.54 1000.89 1000.59 1000.45 1000.26 999.56 999.63 999.28 998.75 997.73 997.12 996.77 997.53 997.74 998.30 998.74 999.28 1000.09 1000.90 1001.51 1002.35 1003.68 1005.04 1005.44 1006.57
1005.78 1005.07 1004.75 1004.92 1004.30 1004.16 1004.11 1003.98 1004.21 1005.00 1005.05 1004.85 1004.69 1004.36 1003.91 1003.36 1002.77 1002.32 1002.36 1002.13 1001.75 1001.71 1001.96 1001.67 1001.50 1001.15 1000.82 1000.51 999.54 999.14 999.04 998.71 999.17 999.83 1000.07 1000.30 1001.15 1002.01 1003.10 1003.21 1004.12 1004.46 1006.69 1007.59
1004.95 1004.85 1004.78 1004.71 1004.23 1004.08 1004.03 1004.55 1005.34 1005.60 1005.68 1005.71 1005.68 1005.38 1004.95 1004.46 1003.69 1003.48 1003.55 1003.62 1003.16 1002.92 1003.52 1003.95 1003.31 1002.84 1002.46 1002.35 1001.83 1001.31 1000.82 1000.36 1000.32 1001.16 1001.36 1002.11 1002.31 1003.08 1004.06 1004.84 1004.86 1005.75 1006.42 1008.05
1004.75 1004.76 1004.95 1004.67 1004.56 1004.54 1004.75 1005.27 1006.21 1006.48 1006.47 1006.61 1006.64 1006.64 1006.36 1005.98 1005.35 1005.59 1005.27 1005.54 1005.70 1004.90 1005.58 1005.82 1005.58 1005.07 1004.72 1004.06 1003.67 1003.17 1002.33 1001.91 1002.19 1002.56 1002.82 1003.31 1004.21 1004.85 1005.56 1006.55 1006.71 1007.19 1006.87 1008.10
1005.48 1005.43 1005.51 1005.44 1006.02 1006.45 1006.43 1006.69 1007.34 1007.38 1007.32 1007.54 1007.57 1007.43 1007.58 1007.60 1007.31 1007.13 1007.38 1007.73 1007.50 1007.01 1007.90 1007.90 1007.48 1006.30 1006.96 1005.87 1004.73 1004.48 1004.15 1004.12 1004.21 1003.91 1004.26 1004.79 1005.53 1006.33 1007.00 1007.64 1008.74 1009.31 1008.30 1009.60
Wind_Speed
21 16 20 24 22 19 15 14 15 10 2 8 14 15 15 13 7 9 10 13 15 15 12 12 11 10 10 9 10 11 8 10 9 9 9 9 9 10 7 7 7 8 9 15
12 21 21 18 16 20 19 16 17 12 5 10 13 17 15 15 11 11 9 13 15 15 15 15 14 13 12 12 12 12 12 10 10 8 7 6 10 7 10 8 7 7 11 15
21 10 19 17 17 19 21 20 17 16 6 13 14 19 20 17 13 11 9 10 13 17 18 18 17 15 14 14 14 14 13 14 12 12 9 7 6 4 5 8 9 7 8 13
16 20 11 19 23 20 22 19 17 18 10 11 2 10 10 8 16 14 12 12 12 16 17 17 19 18 17 16 14 13 15 16 12 13 11 13 12 9 8 8 8 8 10 9
10 13 21 20 19 20 19 15 11 17 16 15 16 11 12 5 12 13 13 13 12 15 18 20 20 19 18 16 16 15 15 17 15 13 13 11 14 9 6 7 10 8 9 6
15 8 11 18 14 15 4 8 8 8 9 12 16 13 8 10 9 7 6 7 6 12 16 17 18 18 17 16 16 17 18 17 17 17 17 14 14 13 11 10 11 10 9 8
15 17 12 12 17 15 17 11 7 9 8 8 7 12 13 4 10 12 11 9 4 9 14 17 20 20 19 21 20 17 19 20 20 20 19 19 18 17 18 16 13 13 10 13
12 12 20 13 14 10 21 19 7 10 9 7 6 9 10 5 3 4 5 6 4 5 11 17 21 21 21 22 22 22 21 21 21 21 21 19 20 12 13 18 15 14 14 15
12 16 14 15 13 13 15 21 15 16 5 6 8 5 7 9 9 9 9 5 7 5 9 16 19 21 21 22 23 23 23 22 22 22 20 21 20 20 16 19 18 15 17 15
4 6 13 18 15 19 13 10 8 10 10 15 9 11 7 6 6 8 5 7 7 4 3 12 16 20 20 20 19 20 21 22 21 22 20 19 21 22 20 18 20 19 17 19
8 4 5 6 15 18 14 12 10 7 13 10 9 7 6 10 9 7 1 7 4 9 5 8 12 16 19 19 20 20 21 22 21 21 20 21 20 21 19 19 20 21 19 20
4 4 5 7 6 3 13 18 18 11 12 8 11 10 1 7 11 8 10 12 6 8 7 3 11 14 17 19 20 21 21 21 20 20 21 20 20 20 20 20 21 20 21 20
7 2 7 10 7 3 8 2 5 7 8 14 10 6 4 7 8 8 10 12 9 8 11 2 8 13 15 18 19 20 21 21 20 20 20 20 21 21 21 21 21 21 21 21
4 5 5 3 3 3 4 3 2 5 7 10 13 13 11 14 16 15 17 17 19 18 12 11 6 11 13 15 17 19 20 20 20 21 21 21 22 22 21 20 21 20 21 21
5 7 7 6 4 4 6 7 6 9 8 10 11 12 12 13 14 15 15 17 17 18 15 11 10 9 10 14 16 17 18 20 20 21 22 23 21 20 20 20 20 20 20 20
6 5 5 9 7 10 13 13 12 12 11 11 11 12 9 7 12 14 16 17 16 17 17 13 11 11 11 12 14 16 18 19 20 21 22 20 20 20 21 20 20 19 20 21
5 4 6 9 3 7 11 17 18 16 12 11 10 7 6 12 13 16 18 20 19 18 19 18 16 12 11 13 12 16 18 17 20 21 19 19 19 20 19 19 20 21 20 18
7 6 2 2 4 7 3 1 4 8 11 10 10 9 9 10 13 16 8 12 16 17 19 19 15 13 13 12 13 14 14 17 18 19 19 19 19 19 18 18 19 18 16 17
15 8 4 5 9 13 15 10 8 7 2 3 6 7 7 9 12 8 8 14 16 18 17 17 17 15 13 11 9 11 13 16 18 19 20 19 19 18 18 18 17 14 11 9
14 13 8 5 6 6 4 3 3 2 4 8 6 9 12 13 8 8 17 17 17 18 17 17 16 15 14 12 8 12 14 14 18 16 17 17 17 17 17 16 10 7 7 5
8 10 13 11 8 4 8 6 4 6 5 11 12 13 13 11 10 13 16 16 16 17 19 17 14 11 12 13 9 11 11 13 13 12 12 13 14 15 10 11 8 10 9 9
9 10 7 10 9 10 3 3 7 8 9 12 13 14 15 15 14 12 12 16 14 17 19 16 13 11 11 13 10 9 2 5 7 7 9 10 9 6 8 13 10 7 10 12
7 8 6 9 8 5 3 3 8 8 9 11 11 15 16 15 13 12 9 11 12 15 17 16 11 10 13 15 11 2 3 6 8 8 8 10 10 9 6 10 10 13 8 8
11 9 7 9 8 12 5 3 8 11 10 11 12 12 15 15 14 8 9 12 10 11 14 16 14 12 12 13 15 11 7 6 9 10 10 8 10 10 9 6 7 8 9 8
7 4 10 13 12 10 13 6 10 12 10 10 12 11 12 13 11 11 8 11 12 13 14 13 13 12 12 11 13 14 13 9 10 9 10 10 9 10 11 11 7 6 7 6
8 10 9 8 8 5 9 10 10 12 13 12 12 13 11 11 11 9 8 9 11 13 14 12 13 15 14 9 13 14 14 12 8 8 8 8 8 8 9 10 12 22 24 23
Wind_Direction
202 202 210 216 221 237 277 259 250 248 346 248 242 250 268 263 231 233 212 204 206 206 195 182 194 187 191 189 183 167 145 150 154 160 165 170 176 181 169 180 151 166 182 185
185 225 216 232 230 235 234 249 249 256 201 249 265 262 254 266 250 263 236 210 211 198 191 188 190 196 192 190 191 170 162 165 168 161 169 173 187 173 175 175 178 171 192 193
222 225 221 224 220 229 233 240 246 254 240 259 270 267 248 242 242 243 236 236 208 204 195 190 191 197 192 194 194 189 172 178 184 175 173 139 114 129 144 162 177 185 194 199
236 240 210 214 228 222 241 228 251 260 249 258 167 281 264 238 261 240 242 211 211 206 198 193 191 192 197 188 193 192 184 183 178 175 172 180 181 171 186 182 177 172 180 185
204 227 222 226 225 225 248 254 235 245 245 256 252 257 251 241 252 248 233 219 209 204 201 195 194 192 193 186 183 192 190 185 175 177 183 189 191 191 162 177 172 196 174 176
260 312 275 231 221 215 196 212 214 229 235 237 240 240 264 244 244 260 264 251 212 195 199 198 192 189 190 188 180 194 191 191 185 186 185 186 185 183 173 170 173 181 188 187
238 245 250 240 226 212 225 205 201 210 209 241 205 210 246 243 261 286 282 266 257 187 195 193 191 190 190 188 187 195 193 192 189 191 188 192 196 192 186 175 182 177 186 194
196 228 221 216 218 198 209 205 209 214 232 244 158 229 222 226 285 279 283 253 234 233 203 196 197 194 193 193 187 193 195 193 191 194 193 193 201 194 193 190 188 189 190 196
204 219 175 217 215 216 206 225 250 266 239 266 224 223 261 222 237 246 250 216 256 286 211 202 195 197 199 194 194 194 194 196 192 194 195 195 195 201 200 190 195 193 197 198
262 234 206 206 208 229 216 183 189 217 237 236 232 231 249 176 242 261 254 261 266 299 267 200 198 198 198 198 197 198 201 198 194 196 196 197 198 198 201 204 200 201 200 203
245 239 153 179 205 211 207 212 234 240 231 247 260 253 152 252 261 283 55 347 315 323 323 205 203 198 202 192 196 200 204 200 198 201 200 200 201 202 201 200 204 205 206 204
4 306 194 189 95 324 226 225 235 239 219 237 255 255 178 306 322 317 292 313 320 325 350 231 197 192 197 199 196 199 203 206 204 202 202 206 205 205 206 209 207 204 210 213
335 193 209 233 209 202 215 165 281 270 282 262 250 245 188 291 304 315 319 302 294 305 315 280 201 195 200 201 203 202 202 208 205 204 207 207 209 209 210 214 211 211 213 215
277 248 282 289 55 33 176 204 196 248 245 257 249 270 281 284 294 301 309 314 308 314 315 292 234 215 209 205 205 205 204 205 205 205 207 210 210 213 214 214 214 215 215 217
330 255 237 259 263 256 272 264 249 243 256 259 280 277 275 276 278 286 302 305 298 298 297 292 272 241 215 210 209 210 208 204 203 205 207 213 213 214 215 217 218 219 218 219
344 233 265 252 264 266 265 262 262 260 259 256 247 261 267 289 302 295 289 286 292 294 297 298 284 256 234 220 216 211 211 205 201 206 212 211 210 213 215 215 215 218 218 220
297 246 210 247 282 273 262 241 242 247 240 242 260 336 337 303 310 310 315 309 303 298 301 302 302 292 270 243 221 215 210 202 203 207 210 208 208 211 213 213 213 215 218 216
253 228 235 239 233 239 40 318 263 266 266 272 301 326 321 309 310 304 355 345 328 322 309 302 299 300 292 268 243 228 215 205 204 211 211 205 202 206 207 209 212 213 213 219
211 226 205 234 228 282 287 269 244 227 182 42 354 359 347 331 301 263 355 345 331 326 315 293 292 292 293 288 270 236 218 209 207 211 211 207 204 199 200 206 209 207 208 199
199 219 219 190 241 236 35 128 323 275 200 36 3 346 338 329 334 331 333 334 324 324 324 315 306 301 291 291 278 250 232 218 218 217 211 205 200 201 200 199 184 145 156 138
184 204 219 223 249 269 274 276 318 242 63 340 339 330 332 312 314 311 319 319 329 326 328 328 320 322 328 317 296 257 236 227 230 219 212 204 197 201 169 128 138 134 118 107
178 188 192 229 235 249 272 235 242 14 337 330 325 325 318 311 300 304 314 320 338 338 339 341 348 354 354 338 301 266 186 58 87 117 123 118 119 115 132 128 119 115 127 121
220 216 195 203 206 96 72 315 354 1 335 336 335 329 324 314 299 304 320 339 1 360 349 346 0 11 16 360 346 350 72 109 119 117 109 108 98 89 97 118 130 117 115 111
222 235 245 253 234 248 317 348 352 350 349 346 342 331 336 341 329 331 338 348 357 18 7 347 353 8 22 17 12 13 30 66 90 95 93 77 88 91 85 89 103 115 117 123
241 210 236 254 260 282 285 17 349 333 342 347 344 350 351 343 340 333 355 3 354 16 10 0 358 3 9 23 23 15 13 39 80 78 78 80 77 75 74 57 52 73 82 120
222 241 232 256 22 335 307 327 349 328 337 349 343 349 359 1 349 351 29 14 14 32 13 5 5 14 353 15 45 29 24 27 36 75 79 78 82 81 81 80 77 65 78 83